This is the latest recevied weather packets stored in our database for station/object W9KHP-1. If no packets are shown the sender has not sent any weather packets the latest 10 day(s).
| Time | Temp. | Humidity | Pressure | Rain* | Wind** | Luminosity | Snow |
|---|---|---|---|---|---|---|---|
| 1777848053 | 18.89° C | 48% | 1015.4 hPa | 0 mm | - | 52 W/m² | - |
| 1777847751 | 18.89° C | 48% | 1015.4 hPa | 0 mm | - | 52 W/m² | - |
| 1777847446 | 18.89° C | 47% | 1015.5 hPa | 0 mm | - | 56 W/m² | - |
| 1777847144 | 18.89° C | 47% | 1015.6 hPa | 0 mm | - | 60 W/m² | - |
| 1777846842 | 18.89° C | 48% | 1015.8 hPa | 0 mm | - | 61 W/m² | - |
| 1777846539 | 18.89° C | 47% | 1015.6 hPa | 0 mm | - | 195 W/m² | - |
| 1777846237 | 18.89° C | 48% | 1015.9 hPa | 0 mm | - | 260 W/m² | - |
| 1777845933 | 19.44° C | 46% | 1015.8 hPa | 0 mm | - | 270 W/m² | - |
| 1777845630 | 18.89° C | 46% | 1015.9 hPa | 0 mm | - | 282 W/m² | - |
| 1777845327 | 18.89° C | 47% | 1015.9 hPa | 0 mm | - | 299 W/m² | - |
| 1777845024 | 19.44° C | 44% | 1016.2 hPa | 0 mm | - | 305 W/m² | - |
| 1777844722 | 19.44° C | 46% | 1016.2 hPa | 0 mm | - | 331 W/m² | - |
| 1777844418 | 19.44° C | 45% | 1016.4 hPa | 0 mm | - | 313 W/m² | - |
| 1777844117 | 19.44° C | 47% | 1016.5 hPa | 0 mm | - | 344 W/m² | - |
| 1777843813 | 19.44° C | 45% | 1016.6 hPa | 0 mm | - | 324 W/m² | - |
| 1777843511 | 19.44° C | 48% | 1016.5 hPa | 0 mm | - | 358 W/m² | - |
| 1777843208 | 19.44° C | 46% | 1016.6 hPa | 0 mm | - | 394 W/m² | - |
| 1777842905 | 19.44° C | 46% | 1016.7 hPa | 0 mm | - | 416 W/m² | - |
| 1777842600 | 20° C | 46% | 1016.8 hPa | 0 mm | - | 431 W/m² | - |
| 1777842297 | 20° C | 45% | 1017.1 hPa | 0 mm | - | 435 W/m² | - |
| 1777841992 | 19.44° C | 46% | 1017.2 hPa | 0 mm | - | 452 W/m² | - |
| 1777841689 | 20° C | 47% | 1017.5 hPa | 0 mm | - | 471 W/m² | - |
| 1777841385 | 19.44° C | 47% | 1017.2 hPa | 0 mm | - | 484 W/m² | - |
| 1777841083 | 19.44° C | 46% | 1017.3 hPa | 0 mm | - | 496 W/m² | - |
| 1777840780 | 19.44° C | 44% | 1017.6 hPa | 0 mm | - | 505 W/m² | - |
* Rain latest hour (hover to see other rain measurements)
** Current wind speed in m/s (hover to see current wind gust speed)